,,,PA_Meas_PMT16A,,PR_Meas_QMR101_102,,RH_Meas_QMH101,,SR_Meas_QMS101,,TA_Meas_QMH101,,GenWind,,GenWind,
date,time,status,PA,status,PR,status,RH,status,SR,status,TA,status,DirAvg,status,SpdAvg,
2009-08-24, 00:00:04,VALID,1005.27,VALID,0,VALID,91.6915,VALID,0.100563,VALID,24.2486,VALID,75,VALID,0.442578,
2009-08-24, 00:01:04,VALID,1005.23,VALID,0,VALID,91.6839,VALID,0,VALID,24.2273,VALID,75,VALID,0.195703,
2009-08-24, 00:02:04,VALID,1005.23,VALID,0,VALID,91.7602,VALID,0,VALID,24.2273,VALID,75,VALID,0,
2009-08-24, 00:03:04,VALID,1005.23,VALID,0,VALID,91.867,VALID,0,VALID,24.2255,VALID,75,VALID,0.280469,
2009-08-24, 00:04:04,VALID,1005.2,VALID,0,VALID,91.928,VALID,0,VALID,24.2857,VALID,56,VALID,0.401953,
2009-08-24, 00:05:04,VALID,1005.19,VALID,0,VALID,92.073,VALID,0.100563,VALID,24.3636,VALID,21,VALID,1.05195,
2009-08-24, 00:06:04,VALID,1005.18,VALID,0,VALID,91.8059,VALID,0,VALID,24.4804,VALID,37,VALID,0.133594,
2009-08-24, 00:07:04,VALID,1005.16,VALID,0,VALID,91.4398,VALID,0.100563,VALID,24.4998,VALID,36,VALID,0.0234375,
2009-08-24, 00:08:04,VALID,1005.15,VALID,0,VALID,91.1804,VALID,0.100563,VALID,24.5193,VALID,36,VALID,0,
2009-08-24, 00:09:04,VALID,1005.16,VALID,0,VALID,91.0049,VALID,0.100563,VALID,24.5193,VALID,36,VALID,0.213672,
2009-08-24, 00:10:04,VALID,1005.1,VALID,0,VALID,90.9286,VALID,0,VALID,24.4998,VALID,36,VALID,0.157813,
2009-08-24, 00:11:04,VALID,1005.09,VALID,0,VALID,90.7532,VALID,0.100563,VALID,24.5017,VALID,36,VALID,0.326172,
2009-08-24, 00:12:04,VALID,1005.11,VALID,0,VALID,90.7303,VALID,0.100563,VALID,24.4609,VALID,38,VALID,0.153516,
2009-08-24, 00:13:04,VALID,1005.06,VALID,0,VALID,90.7913,VALID,0.100563,VALID,24.4006,VALID,38,VALID,0.171875,
2009-08-24, 00:14:04,VALID,1005.04,VALID,0,VALID,90.8523,VALID,0.100563,VALID,24.4025,VALID,38,VALID,0.0890625,
2009-08-24, 00:15:04,VALID,1005.07,VALID,0,VALID,90.8981,VALID,0.100563,VALID,24.3636,VALID,38,VALID,0,
2009-08-24, 00:16:04,VALID,1005.02,VALID,0,VALID,91.0507,VALID,0,VALID,24.3246,VALID,37,VALID,0.441016,
2009-08-24, 00:17:04,VALID,1005.06,VALID,0,VALID,91.1804,VALID,0.100563,VALID,24.3052,VALID,33,VALID,0.00117188,
2009-08-24, 00:18:04,VALID,1005.07,VALID,0,VALID,91.2262,VALID,0.100563,VALID,24.2857,VALID,33,VALID,0.00234375,
2009-08-24, 00:19:04,VALID,1005.05,VALID,0,VALID,91.3177,VALID,0.100563,VALID,24.2662,VALID,33,VALID,0.0257812,
2009-08-24, 00:20:04,VALID,1005.04,VALID,0,VALID,91.5084,VALID,0,VALID,24.2468,VALID,45,VALID,0.1125,
2009-08-24, 00:21:04,VALID,1005.05,VALID,0,VALID,91.5695,VALID,0,VALID,24.2273,VALID,45,VALID,0,
2009-08-24, 00:22:04,VALID,1005.06,VALID,0,VALID,91.7068,VALID,0.100563,VALID,24.1884,VALID,45,VALID,0.0914062,
2009-08-24, 00:23:04,VALID,1005.09,VALID,0,VALID,91.9662,VALID,0.100563,VALID,24.2078,VALID,45,VALID,0,
2009-08-24, 00:24:04,VALID,1005.1,VALID,0,VALID,92.0501,VALID,0.100563,VALID,24.2273,VALID,45,VALID,0,
2009-08-24, 00:25:04,VALID,1005.1,VALID,0,VALID,92.1111,VALID,0.100563,VALID,24.2291,VALID,45,VALID,0.230078,
2009-08-24, 00:26:04,VALID,1005.09,VALID,0,VALID,92.1035,VALID,0.100563,VALID,24.2097,VALID,45,VALID,0.412109,
2009-08-24, 00:27:04,VALID,1005.09,VALID,0,VALID,92.2332,VALID,0,VALID,24.1689,VALID,45,VALID,0.538281,
2009-08-24, 00:28:04,VALID,1005.07,VALID,0,VALID,92.3323,VALID,0.100563,VALID,24.1689,VALID,45,VALID,0.450781,
2009-08-24, 00:29:04,VALID,1005.09,VALID,0,VALID,92.2637,VALID,0.100563,VALID,24.1707,VALID,45,VALID,0.179688,
2009-08-24, 00:30:04,VALID,1005.05,VALID,0,VALID,92.2408,VALID,0.100563,VALID,24.13,VALID,45,VALID,0.00585938,
2009-08-24, 00:31:04,VALID,1005.03,VALID,0,VALID,92.2408,VALID,0,VALID,24.091,VALID,45,VALID,0,
2009-08-24, 00:32:04,VALID,1005.03,VALID,0,VALID,92.2713,VALID,0,VALID,24.0521,VALID,45,VALID,0,
2009-08-24, 00:33:04,VALID,1005.01,VALID,0,VALID,92.3857,VALID,0.100563,VALID,24.0326,VALID,45,VALID,0,
2009-08-24, 00:34:04,VALID,1005,VALID,0,VALID,92.4697,VALID,0,VALID,24.0132,VALID,45,VALID,0,
2009-08-24, 00:35:04,VALID,1004.96,VALID,0,VALID,92.5231,VALID,0.100563,VALID,23.9937,VALID,45,VALID,0,
2009-08-24, 00:36:04,VALID,1004.92,VALID,0,VALID,92.5765,VALID,0,VALID,23.9742,VALID,45,VALID,0,
2009-08-24, 00:37:04,VALID,1004.91,VALID,0,VALID,92.607,VALID,0,VALID,23.9353,VALID,45,VALID,0,
2009-08-24, 00:38:04,VALID,1004.9,VALID,0,VALID,92.607,VALID,0.100563,VALID,23.9566,VALID,45,VALID,0,
2009-08-24, 00:39:04,VALID,1004.88,VALID,0,VALID,92.6299,VALID,0,VALID,23.8964,VALID,45,VALID,0,
2009-08-24, 00:40:04,VALID,1004.85,VALID,0,VALID,92.7062,VALID,0,VALID,23.8982,VALID,45,VALID,0,
2009-08-24, 00:41:04,VALID,1004.86,VALID,0,VALID,92.7214,VALID,0.100563,VALID,23.8593,VALID,45,VALID,0,
2009-08-24, 00:42:04,VALID,1004.85,VALID,0,VALID,92.7367,VALID,0.100563,VALID,23.7778,VALID,45,VALID,0,
2009-08-24, 00:43:04,VALID,1004.8,VALID,0,VALID,92.8511,VALID,0.100563,VALID,23.8009,VALID,45,VALID,0,
2009-08-24, 00:44:04,VALID,1004.83,VALID,0,VALID,92.8816,VALID,0,VALID,23.7814,VALID,45,VALID,0,
2009-08-24, 00:45:04,VALID,1004.81,VALID,0,VALID,92.9198,VALID,0.100563,VALID,23.7407,VALID,45,VALID,0,
2009-08-24, 00:46:04,VALID,1004.82,VALID,0,VALID,93.1257,VALID,0.100563,VALID,23.7212,VALID,45,VALID,0,
2009-08-24, 00:47:04,VALID,1004.81,VALID,0,VALID,93.2478,VALID,0,VALID,23.7017,VALID,45,VALID,0,
2009-08-24, 00:48:04,VALID,1004.83,VALID,0,VALID,93.3088,VALID,0.100563,VALID,23.7212,VALID,45,VALID,0,
2009-08-24, 00:49:04,VALID,1004.85,VALID,0,VALID,93.3012,VALID,0.100563,VALID,23.7035,VALID,45,VALID,0,
2009-08-24, 00:50:04,VALID,1004.84,VALID,0,VALID,93.3546,VALID,0.100563,VALID,23.6841,VALID,45,VALID,0,
2009-08-24, 00:51:04,VALID,1004.85,VALID,0,VALID,93.3699,VALID,0.100563,VALID,23.6221,VALID,45,VALID,0,
2009-08-24, 00:52:04,VALID,1004.87,VALID,0,VALID,93.4462,VALID,0,VALID,23.6239,VALID,45,VALID,0,
2009-08-24, 00:53:04,VALID,1004.89,VALID,0,VALID,93.4538,VALID,0.100563,VALID,23.5655,VALID,45,VALID,0,
2009-08-24, 00:54:04,VALID,1004.89,VALID,0,VALID,93.5682,VALID,0.100563,VALID,23.546,VALID,45,VALID,0,
2009-08-24, 00:55:04,VALID,1004.89,VALID,0,VALID,93.6598,VALID,0.100563,VALID,23.546,VALID,45,VALID,0,
2009-08-24, 00:56:04,VALID,1004.88,VALID,0,VALID,93.6216,VALID,0.100563,VALID,23.5071,VALID,45,VALID,0,
2009-08-24, 00:57:04,VALID,1004.88,VALID,0,VALID,93.6521,VALID,0.100563,VALID,23.4682,VALID,45,VALID,0,
2009-08-24, 00:58:04,VALID,1004.85,VALID,0,VALID,93.7742,VALID,0,VALID,23.4682,VALID,45,VALID,0,
2009-08-24, 00:59:04,VALID,1004.81,VALID,0,VALID,93.8734,VALID,0.100563,VALID,23.4877,VALID,45,VALID,0,
2009-08-24, 01:00:04,VALID,1004.83,VALID,0,VALID,93.9649,VALID,0,VALID,23.4877,VALID,45,VALID,0,
2009-08-24, 01:01:04,VALID,1004.85,VALID,0,VALID,93.9878,VALID,0,VALID,23.4682,VALID,45,VALID,0,
2009-08-24, 01:02:04,VALID,1004.81,VALID,0,VALID,93.9573,VALID,0.100563,VALID,23.4487,VALID,45,VALID,0,
2009-08-24, 01:03:04,VALID,1004.83,VALID,0,VALID,93.9802,VALID,0,VALID,23.4098,VALID,45,VALID,0,
2009-08-24, 01:04:04,VALID,1004.83,VALID,0,VALID,93.9802,VALID,0.100563,VALID,23.3674,VALID,45,VALID,0,
2009-08-24, 01:05:04,VALID,1004.83,VALID,0,VALID,93.9725,VALID,0.100563,VALID,23.3497,VALID,45,VALID,0,
2009-08-24, 01:06:04,VALID,1004.83,VALID,0,VALID,93.9878,VALID,0.100563,VALID,23.3514,VALID,45,VALID,0,
2009-08-24, 01:07:04,VALID,1004.85,VALID,0,VALID,94.1175,VALID,0,VALID,23.3709,VALID,45,VALID,0,
2009-08-24, 01:08:04,VALID,1004.84,VALID,0,VALID,94.1785,VALID,0.100563,VALID,23.3497,VALID,45,VALID,0,
2009-08-24, 01:09:04,VALID,1004.86,VALID,0,VALID,94.2624,VALID,0.100563,VALID,23.3904,VALID,45,VALID,0,
2009-08-24, 01:10:04,VALID,1004.84,VALID,0,VALID,94.3082,VALID,0,VALID,23.3904,VALID,45,VALID,0,
2009-08-24, 01:11:04,VALID,1004.84,VALID,0,VALID,94.3387,VALID,0,VALID,23.3497,VALID,45,VALID,0,
2009-08-24, 01:12:04,VALID,1004.85,VALID,0,VALID,94.3769,VALID,0,VALID,23.3302,VALID,45,VALID,0,
2009-08-24, 01:13:04,VALID,1004.82,VALID,0,VALID,94.3998,VALID,0,VALID,23.3727,VALID,45,VALID,0,
2009-08-24, 01:14:04,VALID,1004.81,VALID,0,VALID,94.4532,VALID,0,VALID,23.332,VALID,45,VALID,0,
2009-08-24, 01:15:04,VALID,1004.83,VALID,0,VALID,94.4761,VALID,0,VALID,23.332,VALID,45,VALID,0,
2009-08-24, 01:16:04,VALID,1004.79,VALID,0,VALID,94.5066,VALID,0,VALID,23.3532,VALID,45,VALID,0,
2009-08-24, 01:17:04,VALID,1004.84,VALID,0,VALID,94.5447,VALID,0.100563,VALID,23.3532,VALID,45,VALID,0,
2009-08-24, 01:18:04,VALID,1004.83,VALID,0,VALID,94.5752,VALID,0,VALID,23.3337,VALID,45,VALID,0,
2009-08-24, 01:19:04,VALID,1004.79,VALID,0,VALID,94.5905,VALID,0,VALID,23.3125,VALID,45,VALID,0,
2009-08-24, 01:20:04,VALID,1004.81,VALID,0,VALID,94.6134,VALID,0,VALID,23.2931,VALID,45,VALID,0,
2009-08-24, 01:21:04,VALID,1004.8,VALID,0,VALID,94.621,VALID,0,VALID,23.2931,VALID,45,VALID,0,
2009-08-24, 01:22:04,VALID,1004.78,VALID,0,VALID,94.6439,VALID,0,VALID,23.2948,VALID,45,VALID,0,
2009-08-24, 01:23:04,VALID,1004.79,VALID,0,VALID,94.6363,VALID,0,VALID,23.2541,VALID,45,VALID,0,
2009-08-24, 01:24:04,VALID,1004.79,VALID,0,VALID,94.6363,VALID,0,VALID,23.2152,VALID,45,VALID,0,
2009-08-24, 01:25:04,VALID,1004.77,VALID,0,VALID,94.6439,VALID,0,VALID,23.217,VALID,45,VALID,0,
2009-08-24, 01:26:04,VALID,1004.77,VALID,0,VALID,94.6363,VALID,0,VALID,23.217,VALID,45,VALID,0,
2009-08-24, 01:27:04,VALID,1004.77,VALID,0,VALID,94.6439,VALID,0,VALID,23.1975,VALID,45,VALID,0,
2009-08-24, 01:28:04,VALID,1004.78,VALID,0,VALID,94.6744,VALID,0,VALID,23.1975,VALID,45,VALID,0,
2009-08-24, 01:29:04,VALID,1004.79,VALID,0,VALID,94.6744,VALID,0,VALID,23.178,VALID,45,VALID,0,
2009-08-24, 01:30:04,VALID,1004.77,VALID,0,VALID,94.7125,VALID,0,VALID,23.1975,VALID,45,VALID,0,
2009-08-24, 01:31:04,VALID,1004.75,VALID,0,VALID,94.7354,VALID,0,VALID,23.2152,VALID,45,VALID,0,
2009-08-24, 01:32:04,VALID,1004.74,VALID,0,VALID,94.7888,VALID,0,VALID,23.1957,VALID,45,VALID,0.096875,
2009-08-24, 01:33:04,VALID,1004.72,VALID,0,VALID,94.8117,VALID,0,VALID,23.2152,VALID,45,VALID,0.128516,
2009-08-24, 01:34:04,VALID,1004.7,VALID,0,VALID,94.8804,VALID,0,VALID,23.2754,VALID,45,VALID,0.323047,
2009-08-24, 01:35:04,VALID,1004.69,VALID,0,VALID,94.9109,VALID,0,VALID,23.2754,VALID,45,VALID,0.446094,
2009-08-24, 01:36:04,VALID,1004.71,VALID,0,VALID,94.949,VALID,0,VALID,23.3143,VALID,45,VALID,0.338281,
2009-08-24, 01:37:04,VALID,1004.71,VALID,0,VALID,94.9796,VALID,0,VALID,23.3532,VALID,45,VALID,0.261328,
2009-08-24, 01:38:04,VALID,1004.73,VALID,0,VALID,95.0406,VALID,0,VALID,23.3532,VALID,45,VALID,0.407422,
2009-08-24, 01:39:04,VALID,1004.72,VALID,0,VALID,95.0101,VALID,0,VALID,23.332,VALID,45,VALID,0.0382813,
2009-08-24, 01:40:04,VALID,1004.72,VALID,0,VALID,95.0482,VALID,0,VALID,23.3727,VALID,45,VALID,0,
2009-08-24, 01:41:04,VALID,1004.74,VALID,0,VALID,95.033,VALID,0,VALID,23.3921,VALID,58,VALID,0.245312,
2009-08-24, 01:42:04,VALID,1004.71,VALID,0,VALID,95.0635,VALID,0,VALID,23.3904,VALID,58,VALID,0.00585938,
2009-08-24, 01:43:04,VALID,1004.67,VALID,0,VALID,95.0864,VALID,0,VALID,23.3709,VALID,58,VALID,0,
2009-08-24, 01:44:04,VALID,1004.71,VALID,0,VALID,95.0558,VALID,0,VALID,23.3904,VALID,58,VALID,0,
2009-08-24, 01:45:04,VALID,1004.67,VALID,0,VALID,95.0635,VALID,0,VALID,23.4116,VALID,58,VALID,0.00078125,
2009-08-24, 01:46:04,VALID,1004.67,VALID,0,VALID,95.0787,VALID,0,VALID,23.4505,VALID,61,VALID,0.384375,
2009-08-24, 01:47:04,VALID,1004.67,VALID,0,VALID,95.0864,VALID,0,VALID,23.4505,VALID,61,VALID,0.439453,
2009-08-24, 01:48:04,VALID,1004.67,VALID,0,VALID,95.0864,VALID,0,VALID,23.4487,VALID,61,VALID,0.367578,
2009-08-24, 01:49:04,VALID,1004.63,VALID,0,VALID,95.094,VALID,0,VALID,23.4505,VALID,61,VALID,0.215234,
2009-08-24, 01:50:04,VALID,1004.6,VALID,0,VALID,95.094,VALID,0,VALID,23.4718,VALID,61,VALID,0.276563,
2009-08-24, 01:51:04,VALID,1004.59,VALID,0,VALID,95.0787,VALID,0,VALID,23.4487,VALID,61,VALID,0.141797,
2009-08-24, 01:52:04,VALID,1004.54,VALID,0,VALID,95.0711,VALID,0,VALID,23.47,VALID,61,VALID,0.307813,
2009-08-24, 01:53:04,VALID,1004.54,VALID,0,VALID,95.0864,VALID,0,VALID,23.5089,VALID,61,VALID,0.387109,
2009-08-24, 01:54:04,VALID,1004.56,VALID,0,VALID,95.0864,VALID,0,VALID,23.4877,VALID,61,VALID,0.380859,
2009-08-24, 01:55:04,VALID,1004.54,VALID,0,VALID,95.0787,VALID,0,VALID,23.4877,VALID,61,VALID,0.3625,
2009-08-24, 01:56:04,VALID,1004.53,VALID,0,VALID,95.0711,VALID,0,VALID,23.5089,VALID,61,VALID,0.103906,
2009-08-24, 01:57:04,VALID,1004.52,VALID,0,VALID,95.0787,VALID,0,VALID,23.4894,VALID,61,VALID,0,
2009-08-24, 01:58:04,VALID,1004.53,VALID,0,VALID,95.0635,VALID,0,VALID,23.47,VALID,61,VALID,0.174609,
2009-08-24, 01:59:04,VALID,1004.52,VALID,0,VALID,95.0558,VALID,0,VALID,23.4487,VALID,61,VALID,0.221094,
2009-08-24, 02:00:04,VALID,1004.54,VALID,0,VALID,95.0253,VALID,0,VALID,23.4311,VALID,61,VALID,0.398438,
2009-08-24, 02:01:04,VALID,1004.53,VALID,0,VALID,95.0024,VALID,0,VALID,23.3709,VALID,60,VALID,0.377734,
2009-08-24, 02:02:04,VALID,1004.55,VALID,0,VALID,94.9338,VALID,0,VALID,23.3125,VALID,60,VALID,0.243359,
2009-08-24, 02:03:04,VALID,1004.56,VALID,0,VALID,94.8728,VALID,0,VALID,23.2754,VALID,60,VALID,0.437891,
2009-08-24, 02:04:04,VALID,1004.57,VALID,0,VALID,94.8651,VALID,0,VALID,23.2948,VALID,60,VALID,0.444141,
2009-08-24, 02:05:04,VALID,1004.59,VALID,0,VALID,94.8422,VALID,0,VALID,23.2347,VALID,60,VALID,0.481641,
2009-08-24, 02:06:04,VALID,1004.59,VALID,0,VALID,94.8346,VALID,0,VALID,23.1957,VALID,60,VALID,0.475391,
2009-08-24, 02:07:04,VALID,1004.58,VALID,0,VALID,94.8499,VALID,0,VALID,23.1975,VALID,60,VALID,0.670313,
2009-08-24, 02:08:04,VALID,1004.59,VALID,0,VALID,94.8728,VALID,0,VALID,23.1763,VALID,59,VALID,0.4875,
2009-08-24, 02:09:04,VALID,1004.59,VALID,0,VALID,94.888,VALID,0,VALID,23.217,VALID,51,VALID,0.513672,
2009-08-24, 02:10:04,VALID,1004.55,VALID,0,VALID,94.8575,VALID,0,VALID,23.1586,VALID,36,VALID,0.314063,
2009-08-24, 02:11:04,VALID,1004.59,VALID,0,VALID,94.8346,VALID,0,VALID,23.1391,VALID,36,VALID,0.353906,
2009-08-24, 02:12:04,VALID,1004.54,VALID,0,VALID,94.8422,VALID,0,VALID,23.1391,VALID,36,VALID,0.273828,
2009-08-24, 02:13:04,VALID,1004.56,VALID,0,VALID,94.8422,VALID,0,VALID,23.1179,VALID,36,VALID,0.552344,
2009-08-24, 02:14:04,VALID,1004.57,VALID,0,VALID,94.8499,VALID,0,VALID,23.0984,VALID,36,VALID,0.157422,
2009-08-24, 02:15:04,VALID,1004.52,VALID,0,VALID,94.8728,VALID,0,VALID,23.1374,VALID,36,VALID,0.600391,
2009-08-24, 02:16:04,VALID,1004.51,VALID,0,VALID,94.9109,VALID,0,VALID,23.1957,VALID,36,VALID,0.3625,
2009-08-24, 02:17:04,VALID,1004.5,VALID,0,VALID,94.9719,VALID,0,VALID,23.2541,VALID,36,VALID,0.028125,
2009-08-24, 02:18:04,VALID,1004.51,VALID,0,VALID,94.9796,VALID,0,VALID,23.2541,VALID,36,VALID,0.297656,
2009-08-24, 02:19:04,VALID,1004.47,VALID,0,VALID,94.9796,VALID,0,VALID,23.2347,VALID,36,VALID,0.336328,
2009-08-24, 02:20:04,VALID,1004.46,VALID,0,VALID,94.9872,VALID,0,VALID,23.2541,VALID,36,VALID,0.444141,
2009-08-24, 02:21:04,VALID,1004.5,VALID,0,VALID,94.9643,VALID,0,VALID,23.2948,VALID,36,VALID,0.467578,
2009-08-24, 02:22:04,VALID,1004.48,VALID,0,VALID,94.9796,VALID,0,VALID,23.2736,VALID,36,VALID,0.448047,
2009-08-24, 02:23:04,VALID,1004.5,VALID,0,VALID,95.0024,VALID,0,VALID,23.3125,VALID,36,VALID,0.309375,
2009-08-24, 02:24:04,VALID,1004.52,VALID,0,VALID,95.0024,VALID,0,VALID,23.332,VALID,36,VALID,0.407813,
2009-08-24, 02:25:04,VALID,1004.54,VALID,0,VALID,95.0177,VALID,0,VALID,23.3532,VALID,36,VALID,0.395312,
2009-08-24, 02:26:04,VALID,1004.51,VALID,0,VALID,95.0024,VALID,0,VALID,23.3514,VALID,36,VALID,0.514453,
2009-08-24, 02:27:04,VALID,1004.52,VALID,0,VALID,95.033,VALID,0,VALID,23.3904,VALID,34,VALID,0.410156,
2009-08-24, 02:28:04,VALID,1004.51,VALID,0,VALID,95.0482,VALID,0.100563,VALID,23.4487,VALID,34,VALID,0.583594,
2009-08-24, 02:29:04,VALID,1004.55,VALID,0,VALID,95.0711,VALID,0,VALID,23.4487,VALID,34,VALID,0.401563,
2009-08-24, 02:30:04,VALID,1004.5,VALID,0,VALID,95.0482,VALID,0,VALID,23.4487,VALID,34,VALID,0.577734,
2009-08-24, 02:31:04,VALID,1004.54,VALID,0,VALID,95.0558,VALID,0,VALID,23.5655,VALID,40,VALID,1.24414,
2009-08-24, 02:32:04,VALID,1004.54,VALID,0,VALID,95.0787,VALID,0,VALID,23.6239,VALID,38,VALID,0.461719,
2009-08-24, 02:33:04,VALID,1004.55,VALID,0,VALID,95.0406,VALID,0,VALID,23.6239,VALID,38,VALID,0.599609,
2009-08-24, 02:34:04,VALID,1004.55,VALID,0,VALID,94.9872,VALID,0,VALID,23.6646,VALID,38,VALID,0.368359,
2009-08-24, 02:35:04,VALID,1004.56,VALID,0,VALID,94.9262,VALID,0,VALID,23.6646,VALID,47,VALID,0.307813,
2009-08-24, 02:36:04,VALID,1004.55,VALID,0,VALID,94.8575,VALID,0,VALID,23.6628,VALID,47,VALID,0.384375,
2009-08-24, 02:37:04,VALID,1004.56,VALID,0,VALID,94.7812,VALID,0,VALID,23.6239,VALID,47,VALID,0.406641,
2009-08-24, 02:38:04,VALID,1004.56,VALID,0,VALID,94.7202,VALID,0,VALID,23.6628,VALID,47,VALID,0.420703,
2009-08-24, 02:39:04,VALID,1004.57,VALID,0,VALID,94.6897,VALID,0,VALID,23.7035,VALID,55,VALID,0.419922,
2009-08-24, 02:40:04,VALID,1004.57,VALID,0,VALID,94.6515,VALID,0,VALID,23.6628,VALID,67,VALID,0.469531,
2009-08-24, 02:41:04,VALID,1004.59,VALID,0,VALID,94.5981,VALID,0,VALID,23.6841,VALID,75,VALID,0.291406,
2009-08-24, 02:42:04,VALID,1004.6,VALID,0,VALID,94.5218,VALID,0.100563,VALID,23.6841,VALID,75,VALID,0.358203,
2009-08-24, 02:43:04,VALID,1004.58,VALID,0,VALID,94.4684,VALID,0,VALID,23.6646,VALID,75,VALID,0.109766,
2009-08-24, 02:44:04,VALID,1004.56,VALID,0,VALID,94.4303,VALID,0,VALID,23.6452,VALID,75,VALID,0.130078,
2009-08-24, 02:45:04,VALID,1004.57,VALID,0,VALID,94.3616,VALID,0,VALID,23.6434,VALID,75,VALID,0.199219,
2009-08-24, 02:46:04,VALID,1004.57,VALID,0,VALID,94.3616,VALID,0,VALID,23.6646,VALID,75,VALID,0.0261719,
2009-08-24, 02:47:04,VALID,1004.6,VALID,0,VALID,94.3006,VALID,0,VALID,23.6646,VALID,75,VALID,0,
2009-08-24, 02:48:04,VALID,1004.59,VALID,0,VALID,94.2319,VALID,0,VALID,23.6452,VALID,75,VALID,0,
2009-08-24, 02:49:04,VALID,1004.58,VALID,0,VALID,94.1938,VALID,0,VALID,23.6434,VALID,75,VALID,0,
2009-08-24, 02:50:04,VALID,1004.6,VALID,0,VALID,94.1251,VALID,0,VALID,23.6452,VALID,75,VALID,0,
2009-08-24, 02:51:04,VALID,1004.61,VALID,0,VALID,94.0565,VALID,0,VALID,23.6452,VALID,75,VALID,0,
2009-08-24, 02:52:04,VALID,1004.6,VALID,0,VALID,94.0412,VALID,0,VALID,23.6239,VALID,75,VALID,0,
2009-08-24, 02:53:04,VALID,1004.6,VALID,0,VALID,94.0412,VALID,0,VALID,23.6646,VALID,75,VALID,0,
2009-08-24, 02:54:04,VALID,1004.61,VALID,0,VALID,94.0259,VALID,0,VALID,23.6646,VALID,75,VALID,0,
2009-08-24, 02:55:04,VALID,1004.6,VALID,0,VALID,93.8963,VALID,0,VALID,23.6452,VALID,75,VALID,0.157813,
2009-08-24, 02:56:04,VALID,1004.61,VALID,0,VALID,93.7208,VALID,0,VALID,23.6044,VALID,32,VALID,0.74375,
2009-08-24, 02:57:04,VALID,1004.57,VALID,0,VALID,93.9191,VALID,0,VALID,23.6841,VALID,59,VALID,0.460938,
2009-08-24, 02:58:04,VALID,1004.61,VALID,0,VALID,93.8505,VALID,0,VALID,23.6841,VALID,59,VALID,0.301562,
2009-08-24, 02:59:04,VALID,1004.58,VALID,0,VALID,93.6826,VALID,0,VALID,23.6628,VALID,62,VALID,0.348828,
2009-08-24, 03:00:04,VALID,1004.57,VALID,0,VALID,93.6064,VALID,0,VALID,23.6239,VALID,62,VALID,0.075,
2009-08-24, 03:01:04,VALID,1004.59,VALID,0,VALID,93.6292,VALID,0,VALID,23.6044,VALID,64,VALID,0.313281,
2009-08-24, 03:02:04,VALID,1004.59,VALID,0,VALID,93.5911,VALID,0,VALID,23.6062,VALID,64,VALID,0.259766,
2009-08-24, 03:03:04,VALID,1004.59,VALID,0,VALID,93.7132,VALID,0,VALID,23.6257,VALID,63,VALID,0.0105469,
2009-08-24, 03:04:04,VALID,1004.62,VALID,0,VALID,93.82,VALID,0,VALID,23.6434,VALID,73,VALID,0.754297,
2009-08-24, 03:05:04,VALID,1004.65,VALID,0,VALID,93.7361,VALID,0,VALID,23.7425,VALID,52,VALID,0.486328,
2009-08-24, 03:06:04,VALID,1004.67,VALID,0,VALID,93.5682,VALID,0,VALID,23.7407,VALID,52,VALID,0.185937,
2009-08-24, 03:07:04,VALID,1004.66,VALID,0,VALID,93.5224,VALID,0,VALID,23.7407,VALID,52,VALID,0.192969,
2009-08-24, 03:08:04,VALID,1004.66,VALID,0,VALID,93.4309,VALID,0,VALID,23.7814,VALID,52,VALID,0.342578,
2009-08-24, 03:09:04,VALID,1004.66,VALID,0,VALID,93.3241,VALID,0,VALID,23.7601,VALID,52,VALID,0.425,
2009-08-24, 03:10:04,VALID,1004.7,VALID,0,VALID,93.2173,VALID,0.100563,VALID,23.7601,VALID,52,VALID,0.191406,
2009-08-24, 03:11:04,VALID,1004.69,VALID,0,VALID,93.1563,VALID,0,VALID,23.7601,VALID,52,VALID,0.217578,
2009-08-24, 03:12:04,VALID,1004.71,VALID,0,VALID,93.0571,VALID,0,VALID,23.7407,VALID,52,VALID,0.44375,
2009-08-24, 03:13:04,VALID,1004.71,VALID,0,VALID,92.9808,VALID,0,VALID,23.723,VALID,52,VALID,0.321875,
2009-08-24, 03:14:04,VALID,1004.7,VALID,0,VALID,92.9579,VALID,0,VALID,23.6841,VALID,52,VALID,0.277734,
2009-08-24, 03:15:04,VALID,1004.73,VALID,0,VALID,93.141,VALID,0,VALID,23.6823,VALID,52,VALID,0.0746094,
2009-08-24, 03:16:04,VALID,1004.74,VALID,0,VALID,93.0495,VALID,0,VALID,23.6628,VALID,52,VALID,0.237891,
2009-08-24, 03:17:04,VALID,1004.74,VALID,0,VALID,93.0418,VALID,0.100563,VALID,23.6239,VALID,52,VALID,0,
2009-08-24, 03:18:04,VALID,1004.74,VALID,0,VALID,93.1486,VALID,0,VALID,23.6239,VALID,52,VALID,0,
2009-08-24, 03:19:04,VALID,1004.79,VALID,0,VALID,93.2249,VALID,0,VALID,23.6239,VALID,52,VALID,0,
2009-08-24, 03:20:04,VALID,1004.75,VALID,0,VALID,93.2478,VALID,0,VALID,23.6452,VALID,52,VALID,0,
2009-08-24, 03:21:04,VALID,1004.76,VALID,0,VALID,93.1944,VALID,0,VALID,23.6044,VALID,52,VALID,0,
2009-08-24, 03:22:04,VALID,1004.78,VALID,0,VALID,93.2097,VALID,0,VALID,23.6452,VALID,52,VALID,0,
2009-08-24, 03:23:04,VALID,1004.76,VALID,0,VALID,93.1639,VALID,0,VALID,23.6044,VALID,52,VALID,0,
2009-08-24, 03:24:04,VALID,1004.77,VALID,0,VALID,93.1944,VALID,0,VALID,23.6044,VALID,52,VALID,0,
2009-08-24, 03:25:04,VALID,1004.76,VALID,0,VALID,93.1944,VALID,0,VALID,23.5868,VALID,52,VALID,0,
2009-08-24, 03:26:04,VALID,1004.73,VALID,0,VALID,93.1715,VALID,0,VALID,23.546,VALID,52,VALID,0,
2009-08-24, 03:27:04,VALID,1004.73,VALID,0,VALID,93.1563,VALID,0,VALID,23.4877,VALID,52,VALID,0,
2009-08-24, 03:28:04,VALID,1004.71,VALID,0,VALID,93.1868,VALID,0,VALID,23.4682,VALID,52,VALID,0,
2009-08-24, 03:29:04,VALID,1004.7,VALID,0,VALID,93.2936,VALID,0,VALID,23.4487,VALID,52,VALID,0,
2009-08-24, 03:30:04,VALID,1004.68,VALID,0,VALID,93.3546,VALID,0,VALID,23.4311,VALID,52,VALID,0,
2009-08-24, 03:31:04,VALID,1004.67,VALID,0,VALID,93.347,VALID,0,VALID,23.3921,VALID,52,VALID,0,
2009-08-24, 03:32:04,VALID,1004.67,VALID,0,VALID,93.408,VALID,0,VALID,23.332,VALID,52,VALID,0,
2009-08-24, 03:33:04,VALID,1004.67,VALID,0,VALID,93.5072,VALID,0.100563,VALID,23.3337,VALID,52,VALID,0,
2009-08-24, 03:34:04,VALID,1004.65,VALID,0,VALID,93.3775,VALID,0,VALID,23.2347,VALID,42,VALID,0.601563,
2009-08-24, 03:35:04,VALID,1004.65,VALID,0,VALID,93.4843,VALID,0,VALID,23.1957,VALID,42,VALID,0.228125,
2009-08-24, 03:36:04,VALID,1004.65,VALID,0,VALID,93.7818,VALID,0,VALID,23.1957,VALID,42,VALID,0.319531,
2009-08-24, 03:37:04,VALID,1004.65,VALID,0,VALID,93.7666,VALID,0,VALID,23.1568,VALID,41,VALID,0.342187,
2009-08-24, 03:38:04,VALID,1004.66,VALID,0,VALID,93.8047,VALID,0,VALID,23.1391,VALID,41,VALID,0.0652344,
2009-08-24, 03:39:04,VALID,1004.65,VALID,0,VALID,93.8352,VALID,0,VALID,23.1002,VALID,41,VALID,0.0359375,
2009-08-24, 03:40:04,VALID,1004.65,VALID,0,VALID,93.9191,VALID,0,VALID,23.0595,VALID,41,VALID,0,
2009-08-24, 03:41:04,VALID,1004.69,VALID,0,VALID,93.9802,VALID,0,VALID,23.0595,VALID,41,VALID,0,
2009-08-24, 03:42:04,VALID,1004.68,VALID,0,VALID,94.0412,VALID,0,VALID,23.0206,VALID,41,VALID,0,
2009-08-24, 03:43:04,VALID,1004.69,VALID,0,VALID,94.0641,VALID,0.100563,VALID,23.0012,VALID,41,VALID,0,
2009-08-24, 03:44:04,VALID,1004.74,VALID,0,VALID,94.1251,VALID,0,VALID,23.0012,VALID,41,VALID,0,
2009-08-24, 03:45:04,VALID,1004.73,VALID,0,VALID,94.2243,VALID,0,VALID,22.9817,VALID,41,VALID,0,
2009-08-24, 03:46:04,VALID,1004.75,VALID,0,VALID,94.3082,VALID,0,VALID,23.0029,VALID,41,VALID,0,
2009-08-24, 03:47:04,VALID,1004.76,VALID,0,VALID,94.354,VALID,0,VALID,22.9622,VALID,41,VALID,0,
2009-08-24, 03:48:04,VALID,1004.79,VALID,0,VALID,94.3845,VALID,0.100563,VALID,22.9428,VALID,41,VALID,0,
2009-08-24, 03:49:04,VALID,1004.78,VALID,0,VALID,94.3845,VALID,0,VALID,22.9233,VALID,41,VALID,0.0792969,